Regional Weather Roundup
Issued by NWS Sterling, VA

Home | Current Version | Previous Version | Graphics & Text | Print | Product List | Glossary On
Versions: 1 2 3 4 5 6 7 8 9 10 11 12 13 14 15 16 17 18 19 20 21 22 23 24 25 26 27 28 29 30 31 32 33 34 35 36 37 38 39 40 41 42 43 44 45 46 47 48
000
ASUS41 KLWX 011610
RWRLWX

REGIONAL WEATHER ROUNDUP
NATIONAL WEATHER SERVICE BALTIMORE MD/WASHINGTON DC
1200 PM EDT SAT AUG 01 2015

Note: "FAIR" indicates few or no clouds below 12,000 feet
with no significant weather and/or obstructions to visibility.
 TC=TEMPERATURE CELSIUS

 * =Non NWS site. Station does not report precipitation (e.g. rain,
    snow, etc.), thunder, or fog.

DCZ001-MDZ009-015-VAZ040>042-051-053>054-011700-
WASHINGTON METRO

CITY           SKY/WX    TMP DP  RH WIND       PRES   REMARKS
WASHINGTON NAT PTSUNNY   87  62  43 W8        29.90R
DULLES         PTSUNNY   83  62  49 W9        29.91R
ANDREWS AFB    PTSUNNY   85  62  44 NW7       29.90R
FT BELVOIR     MOSUNNY   85  64  49 W8        29.90R
COLLEGE PARK*  SUNNY     86  61  42 W3        29.89S
LEESBURG*      PTSUNNY   86  68  54 W10       29.92S
MANASSAS*      MOSUNNY   84  64  51 SW5       29.91R
GAITHERSBURG*  MOSUNNY   82  64  54 W8        29.95R

$$

MDZ006>007-011-014-011700-
BALTIMORE METRO

CITY           SKY/WX    TMP DP  RH WIND       PRES   REMARKS
BWI AIRPORT    MOSUNNY   85  63  47 NW10      29.89R
MD SCIENCE CTR   N/A     85  59  41 MISG      29.88S
MARTIN STATE   MOSUNNY   84  66  54 SW3       29.89S
ANNAPOLIS      PTSUNNY   83  64  52 W7        29.88R
FORT MEADE*    MOSUNNY   82  63  51 W5        29.92S

$$

MDZ012-015-019>023-011700-
MARYLAND EASTERN SHORE

CITY           SKY/WX    TMP DP  RH WIND       PRES   REMARKS
OCEAN CITY     SUNNY     89  64  43 W9        29.89R HX  90
SALISBURY      SUNNY     86  66  51 SW6       29.89S
BAY BRIDGE AP*   N/A     82  61  47 W6        29.89S
CAMBRIDGE*     SUNNY     86  63  45 SW6       29.89S
EASTON*        MOSUNNY   86  66  51 NW8       29.93R

$$

MDZ017>025-011700-
SOUTHERN MARYLAND

CITY           SKY/WX    TMP DP  RH WIND       PRES   REMARKS
PATUXENT RIVER MOSUNNY   87  66  49 SW7       29.89S
ST INIGOES     SUNNY     84  67  56 SW6       29.90R
LEONARDTOWN*   SUNNY     86  64  48 CALM      29.92R

$$

MDZ003>005-011700-
NORTH CENTRAL MARYLAND

CITY           SKY/WX    TMP DP  RH WIND       PRES   REMARKS
FREDERICK*     MOSUNNY   84  66  54 W6        29.93S
HAGERSTOWN APT PTSUNNY   83  55  38 W9        29.91S
WESTMINSTER*   MOSUNNY   82  61  47 W7        29.92S

$$

MDZ501>502-011700-
WESTERN MARYLAND

CITY           SKY/WX    TMP DP  RH WIND       PRES   REMARKS
OAKLAND*       PTSUNNY   68  64  88 NW7       30.04R
CUMBERLAND*    SUNNY     84  52  32 W12       29.97R

$$

VAZ025>031-011700-
SHENANDOAH VALLEY

CITY           SKY/WX    TMP DP  RH WIND       PRES   REMARKS
WINCHESTER*    SUNNY     86  55  35 W12       29.93S
FRONT ROYAL*   PTSUNNY   81  64  57 CALM      29.92S
LURAY*         FAIR      86  61  42 W9        29.94S
NEW MARKET*    FAIR      82  63  51 SW8       29.93S
STAUNTON*      MOSUNNY   84  62  46 CALM      29.98S
WAYNESBORO*    FAIR      79  63  57 W7        29.98S

$$

WVZ021-048>050-054>055-011700-
EASTERN WEST VIRGINIA PANHANDLE

CITY           SKY/WX    TMP DP  RH WIND       PRES   REMARKS
MARTINSBURG    MOSUNNY   82  58  43 VRB3      29.92S
PETERSBURG*    PTSUNNY  N/A N/A N/A CALM      29.96F

$$

VAZ036>039-050-011700-
CENTRAL FOOTHILLS

CITY           SKY/WX    TMP DP  RH WIND       PRES   REMARKS
CHARLOTTESVILL SUNNY     84  62  47 VRB5      29.93R
CULPEPER*      SUNNY     83  64  53 SW3       29.92S
ORANGE*        MOSUNNY   88  64  45 CALM      29.93S
GORDONSVILLE*  FAIR      84  63  48 CALM      29.92S
WARRENTON*     FAIR      85  69  58 S3        29.91S

$$

VAZ055>057-011700-
NORTH AND CENTRAL PIEDMONT

CITY           SKY/WX    TMP DP  RH WIND       PRES   REMARKS
FREDERICKSBRG* SUNNY     89  65  44 CALM      29.89S HX  91
STAFFORD*      PTSUNNY   86  58  39 W6        29.95R

$$

NCZ024-NYZ072-PAZ021-071-VAZ022-071-011700-
OTHER REGIONAL OBSERVATIONS

CITY           SKY/WX    TMP DP  RH WIND       PRES   REMARKS
NEW YORK CITY  MOSUNNY   84  61  45 VRB3      29.84R
PHILADELPHIA   MOSUNNY   86  58  38 W9        29.86R
PITTSBURGH     MOSUNNY   80  54  40 N8        29.96R
ROANOKE        MOSUNNY   85  56  37 NW7       30.00S
RICHMOND       MOSUNNY   89  60  37 VRB3      29.92R
RALEIGH        MOSUNNY   87  61  41 CALM      29.97S

$$

ANZ530>537-011700-
MARINE OBSERVATIONS

STATION/POSITION TIME  TEMP    WIND        PRES
                       AIR SEA DIR/SP/G
                 (UTC) (F)     (DEG/KT/KT) (MB)
THOMAS PT LIGHT  NOT AVBL
BALT KEY BRIDGE  1500   80     260/ 11/ 12 1011.5R
COVE POINT       1500   83     300/  4/  7 1012.8R
LEWISETTA        1500   83 82  260/  5/  6 1012.1R
SOLOMONS ISLAND  1500      83                N/A
PINEY POINT      1500          330/  3/  3   N/A

$$



USA.gov is the U.S. government's official web portal to all federal, state and local government web resources and services.